Location: Del Amo
(33.8464°N, 118.2104°W)
Time: 11:40:55
(UTC+00:00)

Cosmos 1515 - Pass Details

Date: 13 June 2024
Orbit: 448 x 450 km, 82.5° (Epoch: 21 July)

Event Time Altitude Azimuth Distance (km) Brightness Sun altitude
Rises 12:00:26 0° 358° (N) 2,483 7.7 -8.1°
Reaches altitude 10° 12:02:32 10° 2° (N) 1,607 6.8 -7.7°
Maximum altitude 12:05:59 57° 82° (E) 547 4.2 -7.1°
Drops below altitude 10° 12:09:26 10° 162° (SSE) 1,599 6.0 -6.5°
Sets 12:11:31 0° 167° (SSE) 2,470 6.9 -6.2°
